Flag for U.S.A. Weather past 2 weeks in Salem, Oregon, U.S.A.

Now
49 °F

Partly sunny.


Feels Like: 45 °F
Forecast: 39 / 55 °F
Wind: 8 mph from Northeast

Location: McNary Field

Current Time: Mar 2, 2015 at 12:01:55 PM

Latest Report: Mar 2, 2015 at 11:04 AM


Visibility: 10 mi

Pressure: 29.96 "Hg

Humidity: 71%

Dew point: 40 °F

Location of SalemLocation

Historic Weather in Salem — Graph

°F

Salem temperature yesterday

Maximum temperature yesterday: 57 °F (at 2:56 PM)
Minimum temperature yesterday: 27 °F (at 6:56 AM)
Average temperature yesterday: 43 °F

Past Weeks' High & Low Weather Summary

 TemperatureHumidityPressure
High66 °F (Feb 16, 1:56 PM)93% (Feb 18, 2:56 AM)30.47 "Hg (Feb 18, 2:56 AM)
Low27 °F (Mar 1, 6:56 AM)19% (Feb 22, 3:56 PM)29.70 "Hg (Feb 27, 3:01 PM)
Average48 °F65%30.19 "Hg
* Reported Feb 15 11:56 AM — Mar 2 11:04 AM, Salem, Weather by CustomWeather, © 2015

Note: Actual official high and low records may vary slightly from our data, if they occured in-between our weather recording intervals... More about our weather records

Advertising

Salem weather history for previous 24 hours

 ConditionsComfort  
Time TempWeatherWind HumidityBarometerVisibility
11:04 AM
Mon, Mar 2
49 °FPartly sunny.8 mph71%29.96 "Hg10 mi
10:56 AM48 °FPartly sunny.6 mph77%29.96 "Hg10 mi
9:56 AM47 °FBroken clouds.8 mph80%29.97 "Hg10 mi
8:56 AM45 °FMostly cloudy.7 mph86%29.97 "Hg10 mi
7:56 AM43 °FMore clouds than sun.3 mph89%29.95 "Hg10 mi
6:56 AM43 °FCloudy.No wind89%29.94 "Hg10 mi
5:56 AM42 °FOvercast.No wind92%29.93 "Hg10 mi
4:56 AM42 °FMostly cloudy.3 mph92%29.93 "Hg10 mi
3:56 AM43 °FLight rain. Mostly cloudy.No wind86%29.92 "Hg10 mi
2:56 AM44 °FLight rain. Mostly cloudy.No wind79%29.93 "Hg10 mi
1:56 AM45 °FMostly cloudy.No wind74%29.94 "Hg10 mi
12:56 AM45 °FMostly cloudy.No wind74%29.95 "Hg10 mi
11:56 PM
Sun, Mar 1
46 °FOvercast.No wind71%29.96 "Hg10 mi
10:56 PM47 °FMostly cloudy.7 mph71%29.97 "Hg10 mi
9:56 PM48 °FOvercast.10 mph66%29.98 "Hg10 mi
8:56 PM48 °FClear.13 mph68%29.98 "Hg10 mi
7:56 PM49 °FClear.10 mph64%29.99 "Hg10 mi
6:56 PM50 °FClear.9 mph57%30.00 "Hg10 mi
5:56 PM53 °FSunny.No wind31%30.01 "Hg10 mi
4:56 PM54 °FSunny.3 mph35%30.02 "Hg10 mi
3:56 PM57 °FSunny.No wind27%30.04 "Hg10 mi
2:56 PM57 °FSunny.5 mph29%30.07 "Hg10 mi
1:56 PM54 °FSunny.3 mph33%30.10 "Hg10 mi
12:56 PM54 °FSunny.6 mph35%30.14 "Hg10 mi
Weather by CustomWeather, © 2015

See weather overviewHow to use our weather pages